[[{"header":{"parameterUnit":"m.s-1","parameterCategory":1,"la1":30.2992,"la2":30.254,"lo1":-89.0895,"lo2":-89.0443,"dy":0.0025,"dx":0.0025,"nx":19,"ny":19,"refTime":"2026-04-21T09:00:00:Z","depth":0,"parameterNumber":2,"parameterNumberName":"U-component_of_WINDS"},"data":[0,0,0,-3.7239,-3.7239,-3.7228,-3.7228,-3.7229,-3.7229,0,0,0,0,0,0,0,0,0,0,0,-3.7251,-3.7251,-3.7239,-3.7239,-3.7228,-3.7228,-3.7229,-3.7229,0,0,0,0,0,0,0,0,0,0,0,-3.7251,-3.7251,-3.7252,-3.7239,-3.7228,-3.7228,-3.7229,-3.7231,0,0,0,0,0,0,0,0,0,0,-3.7239,-3.726,-3.7251,-3.7252,-3.7239,-3.7228,-3.7228,-3.7231,-3.7231,-3.724,0,-3.725,0,-3.724,-3.723,-3.723,0,0,0,-3.7232,-3.726,-3.7249,-3.7252,-3.7239,-3.7228,-3.7231,-3.7231,-3.7231,-3.724,-3.725,-3.725,-3.724,-3.723,-3.723,-3.7306,-3.7307,0,0,-3.7232,-3.7254,-3.7249,-3.7249,-3.7252,-3.7231,-3.723,-3.7231,-3.7243,-3.725,-3.725,-3.724,-3.723,-3.723,-3.7305,-3.7306,0,0,0,-3.7239,-3.7254,-3.7243,-3.725,-3.7247,-3.7231,-3.723,-3.7243,-3.7238,-3.725,-3.724,-3.723,-3.723,-3.7305,-3.7306,-3.736,0,0,0,-3.7239,-3.7258,-3.7244,-3.7257,-3.7247,-3.7245,-3.7243,-3.7238,-3.7237,-3.724,-3.723,-3.723,-3.7304,-3.7305,-3.7357,-3.7381,0,0,0,-3.7249,-3.7259,-3.7261,-3.7258,-3.7254,-3.7244,-3.7238,-3.7237,-3.7232,-3.723,-3.723,-3.7303,-3.7305,-3.7354,-3.7377,-3.7408,0,0,0,-3.7265,-3.7308,-3.7262,-3.7307,-3.7254,-3.7279,-3.7238,-3.7255,-3.726,-3.723,-3.7304,-3.7305,-3.7353,-3.7374,-3.7405,-3.7437,-3.7453,0,0,-3.7331,-3.7317,-3.7342,-3.73,-3.7338,-3.7278,-3.7324,-3.7308,-3.7288,-3.7301,-3.7303,-3.7358,-3.7376,-3.7407,-3.7535,-3.7548,0,0,0,-3.737,-3.7388,-3.7394,-3.74,-3.7391,-3.7384,-3.7359,-3.7354,-3.7364,-3.73,-3.7377,-3.7388,-3.7405,-3.7419,-3.743,-3.7443,-3.7313,-3.7313,-3.7313,-3.7493,-3.7467,-3.7507,-3.748,-3.7487,-3.7463,-3.7466,-3.7454,-3.7424,-3.7444,-3.7446,-3.7527,-3.7545,-3.7553,-3.7567,-3.7462,-3.7463,-3.7463,-3.7463,-3.7587,-3.7609,-3.7571,-3.7596,-3.7568,-3.7589,-3.7568,-3.7547,-3.7562,-3.7522,-3.7536,-3.7494,-3.7567,-3.7578,-3.7467,-3.7466,-3.7466,-3.7465,-3.7465,-3.7664,-3.767,-3.7664,-3.7672,-3.7682,-3.7654,-3.7671,-3.7645,-3.7621,-3.7634,-3.7635,-3.7634,-3.7629,-3.7637,-3.7637,-3.7638,-3.7638,-3.7638,-3.7638,-3.7745,-3.7737,-3.7754,-3.775,-3.7752,-3.7751,-3.7729,-3.773,-3.7725,-3.7705,-3.7705,-3.7674,-3.758,-3.7557,-3.7642,-3.7642,-3.7641,-3.7641,-3.764,-3.7848,-3.7821,-3.7848,-3.7851,-3.7844,-3.7856,-3.7825,-3.783,-3.7827,-3.7837,-3.7804,-3.7739,-3.7722,-3.7713,-3.7693,-3.7809,-3.7809,-3.7809,-3.7809,-3.7911,-3.7901,-3.7924,-3.793,-3.7933,-3.7908,-3.794,-3.7925,-3.7904,-3.7902,-3.7882,-3.7854,-3.7846,-3.7833,-3.7822,-3.7803,-3.7944,-3.7945,-3.7945,-3.7973,-3.7963,-3.7995,-3.7975,-3.7969,-3.7965,-3.7995,-3.8003,-3.7974,-3.795,-3.7899,-3.7893,-3.7848,-3.7835,-3.7806,-3.7789,-3.7754,0,0]},{"header":{"parameterUnit":"m.s-1","parameterCategory":1,"la1":30.2992,"la2":30.254,"lo1":-89.0895,"lo2":-89.0443,"dy":0.0025,"dx":0.0025,"nx":19,"ny":19,"refTime":"2026-04-21T09:00:00:Z","depth":0,"parameterNumber":3,"parameterNumberName":"V-component_of_WINDS"},"data":[0,0,0,3.163,3.163,3.1606,3.1606,3.1566,3.1566,0,0,0,0,0,0,0,0,0,0,0,3.1633,3.1633,3.163,3.163,3.1606,3.1606,3.1566,3.1566,0,0,0,0,0,0,0,0,0,0,0,3.1633,3.1633,3.1632,3.163,3.1606,3.1606,3.1566,3.1587,0,0,0,0,0,0,0,0,0,0,3.1612,3.161,3.1633,3.1632,3.1629,3.1606,3.1606,3.1588,3.1586,3.1573,0,3.1563,0,3.1564,3.1562,3.1562,0,0,0,3.1632,3.1612,3.161,3.1632,3.1629,3.1606,3.1617,3.1587,3.1584,3.157,3.1562,3.1561,3.1563,3.1562,3.1562,3.1488,3.1487,0,0,3.1633,3.1626,3.1612,3.1608,3.1613,3.1618,3.1616,3.1585,3.1575,3.1562,3.156,3.1562,3.1562,3.1561,3.1488,3.1487,0,0,0,3.1636,3.1627,3.1625,3.161,3.1606,3.1617,3.1615,3.1577,3.1577,3.156,3.1562,3.1562,3.1561,3.1488,3.1488,3.1458,0,0,0,3.1637,3.1628,3.1626,3.1621,3.1607,3.1591,3.1607,3.1579,3.1576,3.1562,3.1562,3.1561,3.1489,3.1488,3.146,3.1445,0,0,0,3.1636,3.1628,3.1623,3.162,3.161,3.1592,3.1591,3.1579,3.1577,3.1562,3.156,3.1489,3.1488,3.1462,3.1448,3.1424,0,0,0,3.1633,3.1595,3.1623,3.1582,3.161,3.1575,3.1591,3.1564,3.1548,3.1561,3.1489,3.1488,3.1463,3.145,3.1426,3.1403,3.1393,0,0,3.1581,3.1589,3.1565,3.1589,3.1547,3.1579,3.1532,3.1523,3.1527,3.15,3.1499,3.146,3.1448,3.1425,3.1339,3.1331,0,0,0,3.1546,3.153,3.152,3.1506,3.15,3.1494,3.1494,3.1491,3.1469,3.1513,3.1445,3.1438,3.1425,3.1414,3.1407,3.1397,3.1483,3.1483,3.1483,3.1461,3.1472,3.1434,3.1443,3.1428,3.1431,3.142,3.1416,3.1428,3.1412,3.1404,3.1351,3.1338,3.1333,3.1322,3.1393,3.1393,3.1393,3.1393,3.1386,3.1365,3.1386,3.1357,3.1368,3.1344,3.1345,3.1355,3.1334,3.1357,3.1346,3.137,3.1324,3.1314,3.1391,3.1391,3.1391,3.1391,3.1391,3.1331,3.1323,3.1322,3.1305,3.129,3.1299,3.1279,3.1289,3.1299,3.1288,3.1281,3.1281,3.1283,3.1284,3.1284,3.1284,3.1283,3.1283,3.1283,3.1274,3.1274,3.1257,3.125,3.1244,3.1237,3.1241,3.1234,3.123,3.1239,3.1239,3.1253,3.1318,3.1334,3.128,3.1281,3.1281,3.1281,3.1282,3.1194,3.1215,3.1187,3.1181,3.1176,3.1161,3.1176,3.1163,3.1159,3.1149,3.1167,3.1213,3.1221,3.1226,3.124,3.1165,3.1165,3.1165,3.1165,3.1147,3.1153,3.113,3.112,3.1111,3.1123,3.1092,3.1096,3.1102,3.11,3.1113,3.1132,3.1137,3.1142,3.1149,3.1161,3.1069,3.1069,3.1068,3.1099,3.1105,3.1077,3.1086,3.1083,3.1081,3.1053,3.104,3.1051,3.1065,3.11,3.1104,3.1134,3.1143,3.1156,3.1167,3.119,0,0]}]]